DECAYED
Showing default

SUPERVIEW-1 01, 41907 (Decayed)

Orbit data source: Space-Track

SUPERVIEW-1 01, 41907 was a payload satellite owned by Beijing HSJ (CN) in LEO that was launched on Wed, 28 Dec 2016 UTC via a CHANG ZHENG 2D launch vehicle from the Taiyaun Space Center, China (TSC). Payload-class satellites include a variety of spacecraft equipped with specific instruments for various scientific and technological missions. These include communications satellites like Starlink; space stations such as the ISS; scientific satellites like the Hubble; Earth observation satellites from companies like Planet Labs, Umbra, and HawkEye 360; GPS; miniature CubeSats for education and research; and military/defense satellites.

Not visible in the next 10 days
Identifier
41907, 2016-083A
Orbit
Decayed
Last TLE update
6 months ago
Origin
Manufacturer
DFH
Mission
Decayed Commercial Imaging
Bus & Motor
CAST3000B, Unknown motor
Mass
~600 kg wet, ~560 kg dry
Launch date (UTC)
2016-12-28 (9 years ago)
Launch vehicle
CHANG ZHENG 2D
Launch site
Taiyaun Space Center, China (TSC)
Object type
Payload
Rocket body
Debris
Shape & HBR
Box + 2 Pan, 4 m
Radar Cross Section
5.141 m², Large (>1 m²)

Expand to show TLE details & history

TLE from 6 months ago
0 SUPERVIEW-1 01
1 41907U 16083A   25015.25502111  .16941719  25348-5  27070-3 0  9993
2 41907  97.3950 127.6411 0011795 303.8607 115.5181 16.47619838446894
Epoch: 2025-01-15T06:07Z
TLE epoch observation values (Epoch: 2025-01-15T06:07:13.823Z)
Latitude
58.80844°
Longitude
-91.42308°
Altitude
158.963 km
Speed
7.815 km/s
True Right ascension
07h 41m 20s
True Declination
58° 38' 31"
Sunlit
Object was in full shadow at epoch
Visualization orbit readout
Visualization observer readout
Orbital elements
Apogee altitude
150.099 km
Perigee altitude
134.717 km
Semi-major axis
6,520.545 km
Eccentricity
0.00118
Inclination
97.395°
RAAN
127.6411°
Arg. of periapsis
303.8607°
True anomaly
Unknown
Mean anomaly
115.5181°
Eccentric anomaly
Unknown
Mean motion
4.12209 °/min
Orbital period
87.33 mins
BSTAR
0.0002707
Loading maneuver chart data...
Loading SW <> Apogee altitude chart data...
Loading historical data...
Loading historical data...
Loading historical data...
Loading historical data...
Loading historical data...
Loading historical data...
Loading historical data...
Other satellites on launch #83 in the year 2016 (2016-12-28 UTC)

SUPERVIEW-1 01 Visibility

Observer location: undefined°, undefined°

This satellite is decayed
Span
Click to sort rows by Start time (UTC) header in descending order
Start Az.
Max El. time (UTC)
Max El. Az.
Max El.
End time (UTC)
End Az.
|